Find Starlink 34933

NORAD ID: 65253 Int'l Des: 2025-179 Owner: SPXS Country: US Constellation: starlink operational
LEOCIRCULARRETROGRADESSO

当前视图

正在加载3D地球...

About Starlink 34933

Starlink 34933 (NORAD 65253) is a starlink constellation satellite (v2 mini) launched Aug 18, 2025 by SPXS of US. It operates in LEO, CIRCULAR, RETROGRADE, SSO orbit with a mass of 575.00 kg.

关于 Starlink 34933

正在加载描述...

即将过境

Passes for default location (London). Set your location on the main map for personalized predictions.

高度历史

Loading altitude history...

两行轨道根数

1 65253U 25179U 26193.25002315 -.00063611 00000-0 -38896-2 0 9999
2 65253 97.2840 233.7445 0001970 90.6550 67.7658 15.10555001 5820
Epoch: Jul 12, 2026 • Age: 9 hours

当前状态

高度 536.9 km
远地点 / 近地点 N/A
速度 7.59 km/s
星下点 7.36°N, 79.54°E
发射日期 Aug 18, 2025
运行时间 0.8 years
类型 internet

技术详情

分类 Payload
质量 575.00 kg
干质量 530.00 kg
总质量 575.00 kg
长度 0.30 m
直径 4.10 m
跨度 29.00 m
形状 Box + pan
制造商 SPXS
平台类型 Starlink V2MO
阶段状态 In Orbit
所有者/国家 SPXS/US

Most Searched